Time,TemperatureF,DewpointF,PressureIn,WindDirection,WindDirectionDegrees,WindSpeedMPH,WindSpeedGustMPH,Humidity,HourlyPrecipIn,Conditions,Clouds,dailyrainin,SoftwareType,DateUTC
2013-05-08 00:01:00,48.0,42.0,30.10,West,270,0.0,1.0,81,0.08,,,0.54,,2013-05-08 07:01:00,
2013-05-08 00:11:00,48.0,42.0,30.10,West,270,0.0,1.0,81,0.08,,,0.54,,2013-05-08 07:11:00,
2013-05-08 00:21:00,48.0,42.0,30.10,West,270,0.0,1.0,81,0.08,,,0.54,,2013-05-08 07:21:00,
2013-05-08 00:31:00,48.0,42.0,30.10,SW,236,0.0,1.0,81,0.03,,,0.54,,2013-05-08 07:31:00,
2013-05-08 00:42:00,48.0,42.0,30.10,SW,236,0.0,1.0,81,0.03,,,0.54,,2013-05-08 07:42:00,
2013-05-08 00:52:00,48.0,42.0,30.10,SW,236,0.0,1.0,81,0.03,,,0.54,,2013-05-08 07:52:00,
2013-05-08 01:01:00,47.0,41.0,30.10,West,276,2.0,3.0,81,0.00,,,0.54,,2013-05-08 08:01:00,
2013-05-08 01:11:00,47.0,41.0,30.10,West,276,2.0,3.0,81,0.00,,,0.54,,2013-05-08 08:11:00,
2013-05-08 01:21:00,47.0,41.0,30.10,WNW,284,1.0,3.0,81,0.00,,,0.54,,2013-05-08 08:21:00,
2013-05-08 01:31:00,47.0,41.0,30.10,WNW,284,1.0,3.0,81,0.00,,,0.54,,2013-05-08 08:31:00,
2013-05-08 01:42:00,47.0,41.0,30.10,WNW,284,1.0,3.0,81,0.00,,,0.54,,2013-05-08 08:42:00,
2013-05-08 01:51:00,47.0,41.0,30.10,WNW,284,1.0,3.0,81,0.00,,,0.54,,2013-05-08 08:51:00,
2013-05-08 02:02:00,47.0,41.0,30.09,WSW,254,1.0,2.0,81,0.00,,,0.54,,2013-05-08 09:02:00,
2013-05-08 02:11:00,47.0,41.0,30.09,WSW,254,1.0,2.0,81,0.00,,,0.54,,2013-05-08 09:11:00,
2013-05-08 02:21:00,47.0,41.0,30.10,WSW,258,2.0,3.0,80,0.00,,,0.54,,2013-05-08 09:21:00,
2013-05-08 02:32:00,47.0,41.0,30.10,SW,221,1.0,3.0,80,0.00,,,0.50,,2013-05-08 09:32:00,
2013-05-08 02:42:00,47.0,41.0,30.10,SW,221,1.0,3.0,80,0.00,,,0.50,,2013-05-08 09:42:00,
2013-05-08 02:52:00,47.0,41.0,30.10,WSW,258,1.0,3.0,80,0.00,,,0.50,,2013-05-08 09:52:00,
2013-05-08 03:02:00,48.0,42.0,30.09,ENE,68,0.0,0.0,80,0.00,,,0.50,,2013-05-08 10:02:00,
2013-05-08 03:12:00,48.0,42.0,30.09,ENE,68,0.0,0.0,80,0.00,,,0.50,,2013-05-08 10:12:00,
2013-05-08 03:22:00,48.0,42.0,30.09,West,270,0.0,1.0,81,0.00,,,0.50,,2013-05-08 10:22:00,
2013-05-08 03:33:00,48.0,42.0,30.10,WSW,248,0.0,1.0,81,0.00,,,0.47,,2013-05-08 10:33:00,
2013-05-08 03:42:00,48.0,42.0,30.10,WSW,248,0.0,1.0,81,0.00,,,0.47,,2013-05-08 10:42:00,
2013-05-08 03:52:00,48.0,42.0,30.10,WSW,248,0.0,1.0,81,0.00,,,0.47,,2013-05-08 10:52:00,
2013-05-08 04:02:00,48.0,42.0,30.10,WSW,248,0.0,1.0,81,0.00,,,0.47,,2013-05-08 11:02:00,
2013-05-08 04:11:00,48.0,42.0,30.10,WSW,248,0.0,1.0,81,0.00,,,0.47,,2013-05-08 11:11:00,
2013-05-08 04:22:00,48.0,42.0,30.10,WSW,248,0.0,1.0,81,0.00,,,0.47,,2013-05-08 11:22:00,
2013-05-08 04:32:00,48.0,43.0,30.10,West,270,1.0,1.0,82,0.00,,,0.37,,2013-05-08 11:32:00,
2013-05-08 04:41:00,48.0,43.0,30.10,West,270,1.0,1.0,82,0.00,,,0.37,,2013-05-08 11:41:00,
2013-05-08 04:52:00,48.0,43.0,30.10,North,0,1.0,1.0,83,0.00,,,0.37,,2013-05-08 11:52:00,
2013-05-08 05:01:00,48.0,43.0,30.11,WNW,293,0.0,0.0,83,0.00,,,0.37,,2013-05-08 12:01:00,
2013-05-08 05:11:00,48.0,43.0,30.11,WNW,293,0.0,0.0,83,0.00,,,0.37,,2013-05-08 12:11:00,
2013-05-08 05:21:00,48.0,43.0,30.11,WNW,293,0.0,0.0,83,0.00,,,0.37,,2013-05-08 12:21:00,
2013-05-08 05:31:00,48.0,43.0,30.11,North,0,0.0,1.0,84,0.00,,,0.24,,2013-05-08 12:31:00,
2013-05-08 05:41:00,48.0,43.0,30.11,North,0,0.0,1.0,84,0.00,,,0.24,,2013-05-08 12:41:00,
2013-05-08 05:52:00,48.0,43.0,30.11,North,0,0.0,1.0,84,0.00,,,0.24,,2013-05-08 12:52:00,
2013-05-08 06:01:00,48.0,43.0,30.12,NNE,23,0.0,0.0,84,0.00,,,0.24,,2013-05-08 13:01:00,
2013-05-08 06:11:00,48.0,43.0,30.12,NNE,23,0.0,0.0,84,0.00,,,0.24,,2013-05-08 13:11:00,
2013-05-08 06:21:00,48.0,43.0,30.12,NNE,23,0.0,0.0,84,0.00,,,0.24,,2013-05-08 13:21:00,
2013-05-08 06:32:00,48.0,44.0,30.12,West,270,0.0,0.0,85,0.00,,,0.20,,2013-05-08 13:32:00,
2013-05-08 06:42:00,48.0,44.0,30.12,West,270,0.0,0.0,85,0.00,,,0.20,,2013-05-08 13:42:00,
2013-05-08 06:52:00,48.0,44.0,30.13,West,270,0.0,0.0,85,0.00,,,0.20,,2013-05-08 13:52:00,
2013-05-08 07:02:00,48.0,44.0,30.13,West,270,0.0,0.0,85,0.00,,,0.20,,2013-05-08 14:02:00,
2013-05-08 07:11:00,48.0,44.0,30.13,West,270,0.0,0.0,85,0.00,,,0.20,,2013-05-08 14:11:00,
2013-05-08 07:21:00,48.0,44.0,30.13,West,270,0.0,0.0,85,0.00,,,0.20,,2013-05-08 14:21:00,
2013-05-08 07:31:00,49.0,45.0,30.14,NNW,338,0.0,0.0,85,0.00,,,0.18,,2013-05-08 14:31:00,
2013-05-08 07:41:00,49.0,45.0,30.14,NNW,338,0.0,0.0,85,0.00,,,0.18,,2013-05-08 14:41:00,
2013-05-08 07:52:00,49.0,45.0,30.14,NW,315,0.0,0.0,85,0.00,,,0.18,,2013-05-08 14:52:00,
2013-05-08 08:01:00,50.0,46.0,30.15,NE,35,1.0,1.0,85,0.00,,,0.18,,2013-05-08 15:01:00,
2013-05-08 08:11:00,50.0,46.0,30.15,NE,35,1.0,1.0,85,0.00,,,0.18,,2013-05-08 15:11:00,
2013-05-08 08:21:00,50.0,46.0,30.15,WSW,250,1.0,1.0,85,0.00,,,0.18,,2013-05-08 15:21:00,
2013-05-08 08:33:00,50.0,45.0,30.15,SE,135,0.0,1.0,83,0.00,,,0.18,,2013-05-08 15:33:00,
2013-05-08 08:42:00,50.0,45.0,30.15,SE,135,0.0,1.0,83,0.00,,,0.18,,2013-05-08 15:42:00,
2013-05-08 08:52:00,50.0,45.0,30.15,SE,135,0.0,1.0,83,0.00,,,0.18,,2013-05-08 15:52:00,
2013-05-08 09:03:00,52.0,46.0,30.16,WSW,248,2.0,2.0,81,0.00,,,0.18,,2013-05-08 16:03:00,
2013-05-08 09:12:00,52.0,46.0,30.16,WSW,248,2.0,2.0,81,0.00,,,0.18,,2013-05-08 16:12:00,
2013-05-08 09:23:00,53.0,47.0,30.16,ENE,74,1.0,1.0,80,0.00,,,0.18,,2013-05-08 16:23:00,
2013-05-08 09:33:00,53.0,46.0,30.16,ESE,113,0.0,1.0,76,0.00,,,0.18,,2013-05-08 16:33:00,
2013-05-08 09:42:00,53.0,46.0,30.16,ESE,113,0.0,1.0,76,0.00,,,0.18,,2013-05-08 16:42:00,
2013-05-08 09:52:00,53.0,46.0,30.16,ESE,113,0.0,1.0,76,0.00,,,0.18,,2013-05-08 16:52:00,
2013-05-08 10:02:00,55.0,47.0,30.16,WNW,299,2.0,2.0,74,0.00,,,0.18,,2013-05-08 17:02:00,
2013-05-08 10:11:00,55.0,47.0,30.16,WNW,299,2.0,2.0,74,0.00,,,0.18,,2013-05-08 17:11:00,
2013-05-08 10:22:00,56.0,47.0,30.16,WSW,248,1.0,3.0,73,0.00,,,0.18,,2013-05-08 17:22:00,
2013-05-08 10:31:00,56.0,47.0,30.16,WSW,248,1.0,3.0,73,0.00,,,0.18,,2013-05-08 17:31:00,
2013-05-08 10:41:00,56.0,47.0,30.16,WSW,248,1.0,3.0,73,0.00,,,0.18,,2013-05-08 17:41:00,
2013-05-08 10:52:00,59.0,49.0,30.16,SSE,158,1.0,2.0,69,0.00,,,0.18,,2013-05-08 17:52:00,
2013-05-08 11:02:00,61.0,47.0,30.16,ENE,68,1.0,2.0,60,0.00,,,0.18,,2013-05-08 18:02:00,
2013-05-08 11:11:00,61.0,47.0,30.16,ENE,68,1.0,2.0,60,0.00,,,0.18,,2013-05-08 18:11:00,
2013-05-08 11:21:00,61.0,47.0,30.16,ENE,68,1.0,2.0,60,0.00,,,0.18,,2013-05-08 18:21:00,
2013-05-08 11:31:00,64.0,48.0,30.16,WSW,244,3.0,5.0,57,0.00,,,0.18,,2013-05-08 18:31:00,
2013-05-08 11:42:00,64.0,48.0,30.16,WSW,244,3.0,5.0,57,0.00,,,0.18,,2013-05-08 18:42:00,
2013-05-08 12:01:00,65.0,47.0,30.16,NE,45,2.0,2.0,53,0.01,,,0.19,,2013-05-08 19:01:00,
2013-05-08 12:52:00,66.0,44.0,30.16,ENE,70,3.0,4.0,45,0.01,,,0.19,,2013-05-08 19:52:00,
2013-05-08 13:01:00,66.0,44.0,30.16,ENE,70,3.0,4.0,45,0.01,,,0.19,,2013-05-08 20:01:00,
2013-05-08 13:11:00,66.0,44.0,30.16,ENE,70,3.0,4.0,45,0.01,,,0.19,,2013-05-08 20:11:00,
2013-05-08 13:22:00,65.0,44.0,30.14,West,262,2.0,6.0,46,0.00,,,0.19,,2013-05-08 20:22:00,
2013-05-08 13:32:00,64.0,42.0,30.14,ESE,121,1.0,4.0,45,0.00,,,0.19,,2013-05-08 20:32:00,
2013-05-08 13:42:00,64.0,42.0,30.14,ESE,121,1.0,4.0,45,0.00,,,0.19,,2013-05-08 20:42:00,
2013-05-08 13:52:00,64.0,42.0,30.14,ESE,121,1.0,4.0,45,0.00,,,0.19,,2013-05-08 20:52:00,
2013-05-08 14:01:00,65.0,44.0,30.14,SW,228,2.0,6.0,46,0.00,,,0.19,,2013-05-08 21:01:00,
2013-05-08 14:11:00,65.0,44.0,30.14,SW,228,2.0,6.0,46,0.00,,,0.19,,2013-05-08 21:11:00,
2013-05-08 14:21:00,65.0,44.0,30.14,NE,49,3.0,5.0,46,0.00,,,0.19,,2013-05-08 21:21:00,
2013-05-08 14:32:00,65.0,44.0,30.13,SE,125,1.0,3.0,47,0.00,,,0.19,,2013-05-08 21:32:00,
2013-05-08 14:43:00,66.0,43.0,30.14,WNW,287,3.0,3.0,44,0.00,,,0.19,,2013-05-08 21:43:00,
2013-05-08 14:52:00,66.0,43.0,30.14,WNW,287,3.0,3.0,44,0.00,,,0.19,,2013-05-08 21:52:00,
2013-05-08 15:02:00,66.0,43.0,30.14,WNW,287,3.0,3.0,44,0.00,,,0.19,,2013-05-08 22:02:00,
2013-05-08 15:12:00,66.0,43.0,30.14,WNW,287,3.0,3.0,44,0.00,,,0.19,,2013-05-08 22:12:00,
2013-05-08 15:22:00,66.0,41.0,30.13,West,262,2.0,5.0,40,0.00,,,0.19,,2013-05-08 22:22:00,
2013-05-08 15:33:00,67.0,41.0,30.13,WNW,291,2.0,5.0,39,0.00,,,0.19,,2013-05-08 22:33:00,
2013-05-08 15:42:00,67.0,41.0,30.13,WNW,291,2.0,5.0,39,0.00,,,0.19,,2013-05-08 22:42:00,
2013-05-08 15:52:00,67.0,41.0,30.13,WNW,291,2.0,5.0,39,0.00,,,0.19,,2013-05-08 22:52:00,
2013-05-08 16:01:00,67.0,41.0,30.12,South,169,2.0,5.0,39,0.00,,,0.19,,2013-05-08 23:01:00,
2013-05-08 16:11:00,67.0,41.0,30.12,South,169,2.0,5.0,39,0.00,,,0.19,,2013-05-08 23:11:00,
2013-05-08 16:22:00,67.0,39.0,30.12,WSW,240,3.0,5.0,36,0.00,,,0.19,,2013-05-08 23:22:00,
2013-05-08 16:32:00,67.0,40.0,30.11,West,261,2.0,5.0,37,0.00,,,0.19,,2013-05-08 23:32:00,
2013-05-08 16:42:00,67.0,40.0,30.11,West,261,2.0,5.0,37,0.00,,,0.19,,2013-05-08 23:42:00,
2013-05-08 16:52:00,67.0,40.0,30.11,West,261,2.0,5.0,37,0.00,,,0.19,,2013-05-08 23:52:00,
2013-05-08 17:01:00,67.0,39.0,30.11,West,270,3.0,5.0,36,0.00,,,0.19,,2013-05-09 00:01:00,
2013-05-08 17:11:00,67.0,39.0,30.11,West,270,3.0,5.0,36,0.00,,,0.19,,2013-05-09 00:11:00,
2013-05-08 17:21:00,67.0,38.0,30.11,SW,232,1.0,3.0,35,0.00,,,0.19,,2013-05-09 00:21:00,
2013-05-08 17:32:00,67.0,38.0,30.11,SE,134,2.0,6.0,34,0.00,,,0.19,,2013-05-09 00:32:00,
2013-05-08 17:42:00,67.0,38.0,30.11,SE,134,2.0,6.0,34,0.00,,,0.19,,2013-05-09 00:42:00,
2013-05-08 17:51:00,67.0,38.0,30.11,SE,134,2.0,6.0,34,0.00,,,0.19,,2013-05-09 00:51:00,
2013-05-08 18:01:00,67.0,38.0,30.11,WSW,250,2.0,3.0,34,0.00,,,0.19,,2013-05-09 01:01:00,
2013-05-08 18:11:00,67.0,38.0,30.11,WSW,250,2.0,3.0,34,0.00,,,0.19,,2013-05-09 01:11:00,
2013-05-08 18:22:00,67.0,38.0,30.11,WSW,250,2.0,3.0,34,0.00,,,0.19,,2013-05-09 01:22:00,
2013-05-08 18:32:00,67.0,38.0,30.10,ENE,68,1.0,1.0,34,0.00,,,0.18,,2013-05-09 01:32:00,
2013-05-08 18:42:00,67.0,39.0,30.10,West,259,0.0,1.0,36,0.00,,,0.18,,2013-05-09 01:42:00,
2013-05-08 18:52:00,67.0,39.0,30.10,West,259,0.0,1.0,36,0.00,,,0.18,,2013-05-09 01:52:00,
2013-05-08 19:02:00,67.0,40.0,30.10,WSW,248,0.0,1.0,37,0.00,,,0.18,,2013-05-09 02:02:00,
2013-05-08 19:11:00,67.0,40.0,30.10,WSW,248,0.0,1.0,37,0.00,,,0.18,,2013-05-09 02:11:00,
2013-05-08 19:21:00,67.0,40.0,30.10,WSW,248,0.0,1.0,37,0.00,,,0.18,,2013-05-09 02:21:00,
2013-05-08 19:32:00,66.0,39.0,30.11,WNW,293,0.0,0.0,37,0.00,,,0.18,,2013-05-09 02:32:00,
2013-05-08 19:42:00,66.0,39.0,30.11,WNW,293,0.0,0.0,37,0.00,,,0.18,,2013-05-09 02:42:00,
2013-05-08 19:52:00,66.0,39.0,30.11,WNW,293,0.0,0.0,37,0.00,,,0.18,,2013-05-09 02:52:00,
2013-05-08 20:01:00,66.0,40.0,30.11,SE,135,0.0,0.0,39,0.00,,,0.18,,2013-05-09 03:01:00,
2013-05-08 20:11:00,66.0,40.0,30.11,SE,135,0.0,0.0,39,0.00,,,0.18,,2013-05-09 03:11:00,
2013-05-08 20:21:00,65.0,40.0,30.12,SE,135,0.0,0.0,40,0.00,,,0.18,,2013-05-09 03:21:00,
2013-05-08 20:33:00,65.0,40.0,30.12,SE,135,0.0,0.0,40,0.00,,,0.18,,2013-05-09 03:33:00,
2013-05-08 20:43:00,65.0,40.0,30.12,SE,135,0.0,0.0,40,0.00,,,0.18,,2013-05-09 03:43:00,
2013-05-08 20:52:00,63.0,43.0,30.13,NW,322,2.0,3.0,48,0.00,,,0.17,,2013-05-09 03:52:00,
2013-05-08 21:03:00,63.0,44.0,30.14,SSW,204,0.0,1.0,50,0.00,,,0.17,,2013-05-09 04:03:00,
2013-05-08 21:12:00,63.0,44.0,30.14,SSW,204,0.0,1.0,50,0.00,,,0.17,,2013-05-09 04:12:00,
2013-05-08 21:23:00,62.0,45.0,30.14,NW,311,1.0,3.0,54,0.00,,,0.17,,2013-05-09 04:23:00,
2013-05-08 21:32:00,62.0,45.0,30.14,NW,311,1.0,3.0,54,0.00,,,0.17,,2013-05-09 04:32:00,
2013-05-08 21:42:00,62.0,45.0,30.14,NW,311,1.0,3.0,54,0.00,,,0.17,,2013-05-09 04:42:00,
2013-05-08 21:53:00,60.0,44.0,30.16,WSW,254,2.0,3.0,55,0.00,,,0.06,,2013-05-09 04:53:00,
2013-05-08 22:02:00,60.0,44.0,30.16,WSW,254,2.0,3.0,55,0.00,,,0.06,,2013-05-09 05:02:00,
2013-05-08 22:12:00,60.0,44.0,30.16,WSW,254,2.0,3.0,55,0.00,,,0.06,,2013-05-09 05:12:00,
2013-05-08 22:22:00,59.0,43.0,30.17,West,270,2.0,2.0,56,0.00,,,0.06,,2013-05-09 05:22:00,
2013-05-08 22:32:00,59.0,43.0,30.17,West,270,2.0,2.0,56,0.00,,,0.06,,2013-05-09 05:32:00,
2013-05-08 22:42:00,59.0,43.0,30.17,West,270,2.0,2.0,56,0.00,,,0.06,,2013-05-09 05:42:00,
2013-05-08 22:51:00,59.0,43.0,30.17,West,270,2.0,2.0,56,0.00,,,0.06,,2013-05-09 05:51:00,
2013-05-08 23:01:00,58.0,43.0,30.18,West,270,1.0,1.0,57,0.00,,,0.01,,2013-05-09 06:01:00,
2013-05-08 23:11:00,58.0,43.0,30.18,West,270,1.0,1.0,57,0.00,,,0.01,,2013-05-09 06:11:00,
2013-05-08 23:21:00,57.0,42.0,30.19,WSW,248,0.0,1.0,58,0.00,,,0.01,,2013-05-09 06:21:00,
2013-05-08 23:32:00,57.0,43.0,30.19,WSW,241,1.0,2.0,59,0.00,,,0.01,,2013-05-09 06:32:00,
2013-05-08 23:42:00,57.0,43.0,30.19,WSW,241,1.0,2.0,59,0.00,,,0.01,,2013-05-09 06:42:00,
2013-05-08 23:52:00,56.0,43.0,30.19,WSW,248,0.0,2.0,61,0.00,,,0.01,,2013-05-09 06:52:00,